Morgantown, WV

5:50 AM EDT on May 30, 2017 (GMT -0400)
Morgantown Municipal-Hart

Weather History for KMGW - October, 2012

Change the Weather History Date:

Friday, October 26, 2012

  Actual Average Record
Temperature  
Mean Temperature 69 °F 51 °F  
Max Temperature 80 °F 62 °F 83 °F (2010)
Min Temperature 57 °F 41 °F 25 °F (1962)
Degree Days  
Heating Degree Days 0 14  
Month to date heating degree days 202 272  
Since 1 July heating degree days 302 369  
Cooling Degree Days 4 0  
Month to date cooling degree days 29 10  
Year to date cooling degree days 1141 811  
Growing Degree Days 18 (Base 50)    
Moisture  
Dew Point 51 °F    
Average Humidity 59    
Maximum Humidity 80    
Minimum Humidity 37    
Precipitation  
Precipitation 0.00 in 0.09 in 1.27 in (1978)
Month to date precipitation 1.24 2.31  
Year to date precipitation 25.22 34.99  
Sea Level Pressure  
Sea Level Pressure 30.05 in    
Wind  
Wind Speed 5 mph (ESE)    
Max Wind Speed 12 mph    
Max Gust Speed 15 mph    
Visibility 10 miles    
Events      
T = Trace of Precipitation, MM = Missing Value Source: NWS Daily Summary

Daily Weather History Graph

Daily Weather History Graph

Search for Another Location

Airport or City:

Trip Planner

Search our weather history database for the weather conditions in past years. The results will help you decide how hot, cold, wet, or windy it might be!

Date:

Astronomy

Oct. 26, 2012 Rise Set
Actual Time 7:41 AM EDT 6:24 PM EDT
Civil Twilight 7:14 AM EDT 6:52 PM EDT
Nautical Twilight 6:42 AM EDT 7:23 PM EDT
Astronomical Twilight 6:11 AM EDT 7:55 PM EDT
Moon 4:39 PM EDT (10/26) 4:37 AM EDT (10/26)
Length of Visible Light 11h 37m
Length of Day
10h 42m
Waxing Gibbous, 91% of the Moon is Illuminated
Oct 26
Waxing Gibbous
Oct 29
Full
Nov 6
Last Quarter
Nov 13
New
Nov 20
First Quarter

Hourly Weather History & Observations

Time (EDT) Temp. Dew Point Humidity Pressure Visibility Wind Dir Wind Speed Gust Speed Precip Events Conditions
12:53 AM 68.0 °F 48.9 °F 50% 30.04 in 10.0 mi South 3.5 mph - N/A   Clear
1:53 AM 64.0 °F 48.9 °F 58% 30.05 in 10.0 mi Calm Calm - N/A   Clear
2:53 AM 62.1 °F 50.0 °F 65% 30.06 in 10.0 mi SE 6.9 mph - N/A   Clear
3:53 AM 62.1 °F 48.9 °F 62% 30.06 in 10.0 mi SE 6.9 mph - N/A   Clear
4:53 AM 63.0 °F 50.0 °F 63% 30.07 in 10.0 mi SSE 9.2 mph - N/A   Clear
5:53 AM 60.1 °F 50.0 °F 69% 30.07 in 10.0 mi SSE 5.8 mph - N/A   Clear
6:53 AM 60.1 °F 50.0 °F 69% 30.08 in 10.0 mi SSE 3.5 mph - N/A   Clear
7:53 AM 60.1 °F 50.0 °F 69% 30.09 in 10.0 mi SSE 3.5 mph - N/A   Clear
8:53 AM 64.0 °F 53.1 °F 67% 30.11 in 10.0 mi SE 4.6 mph - N/A   Clear
9:53 AM 69.1 °F 52.0 °F 54% 30.11 in 10.0 mi South 4.6 mph - N/A   Clear
10:53 AM 73.0 °F 53.1 °F 49% 30.10 in 10.0 mi SSW 8.1 mph - N/A   Clear
11:53 AM 73.9 °F 52.0 °F 46% 30.10 in 10.0 mi Variable 4.6 mph - N/A   Clear
12:53 PM 75.9 °F 53.1 °F 45% 30.06 in 10.0 mi Variable 3.5 mph - N/A   Clear
1:53 PM 75.9 °F 53.1 °F 45% 30.04 in 10.0 mi Variable 3.5 mph - N/A   Partly Cloudy
2:53 PM 77.0 °F 51.1 °F 40% 30.01 in 10.0 mi Variable 4.6 mph - N/A   Clear
3:53 PM 77.0 °F 51.1 °F 40% 30.00 in 10.0 mi Calm Calm - N/A   Partly Cloudy
4:53 PM 78.1 °F 50.0 °F 37% 29.98 in 10.0 mi Calm Calm - N/A   Mostly Cloudy
5:53 PM 75.0 °F 51.1 °F 43% 29.98 in 10.0 mi North 3.5 mph - N/A   Mostly Cloudy
6:53 PM 72.0 °F 53.1 °F 51% 29.99 in 10.0 mi NE 3.5 mph - N/A   Overcast
7:53 PM 71.1 °F 54.0 °F 55% 30.01 in 10.0 mi East 6.9 mph - N/A   Overcast
8:53 PM 68.0 °F 55.0 °F 63% 30.03 in 10.0 mi North 8.1 mph - N/A   Overcast
9:53 PM 62.1 °F 53.1 °F 72% 30.04 in 10.0 mi North 9.2 mph - N/A   Overcast
10:53 PM 59.0 °F 52.0 °F 78% 30.02 in 10.0 mi North 5.8 mph - N/A   Scattered Clouds
11:53 PM 57.0 °F 52.0 °F 83% 30.00 in 10.0 mi North 3.5 mph - N/A   Scattered Clouds